Time,TemperatureF,DewpointF,PressureIn,WindDirection,WindDirectionDegrees,WindSpeedMPH,WindSpeedGustMPH,Humidity,HourlyPrecipIn,Conditions,Clouds,dailyrainin,SoftwareType,DateUTC
2013-03-18 00:13:00,44.1,42.0,29.77,WSW,254,0.0,4.0,93,0.00,,,0.00,weatherlink.com 1.10,2013-03-18 05:13:00,
2013-03-18 00:28:00,44.1,42.0,29.76,WSW,254,0.0,1.0,93,0.00,,,0.00,weatherlink.com 1.10,2013-03-18 05:28:00,
2013-03-18 00:43:00,44.1,42.0,29.76,WSW,254,0.0,3.0,93,0.00,,,0.00,weatherlink.com 1.10,2013-03-18 05:43:00,
2013-03-18 00:58:00,44.1,42.0,29.75,SSE,148,0.0,2.0,93,0.00,,,0.00,weatherlink.com 1.10,2013-03-18 05:58:00,
2013-03-18 01:13:00,44.1,43.0,29.78,SSE,147,2.0,3.0,94,0.00,,,0.00,weatherlink.com 1.10,2013-03-18 06:13:00,
2013-03-18 01:28:00,43.8,42.0,29.79,NNW,345,1.0,5.0,94,0.00,,,0.00,weatherlink.com 1.10,2013-03-18 06:28:00,
2013-03-18 01:43:00,43.5,42.0,29.78,NNW,344,2.0,6.0,94,0.00,,,0.00,weatherlink.com 1.10,2013-03-18 06:43:00,
2013-03-18 01:58:00,43.4,42.0,29.78,North,9,2.0,5.0,95,0.00,,,0.00,weatherlink.com 1.10,2013-03-18 06:58:00,
2013-03-18 02:13:00,43.3,42.0,29.77,NNE,32,1.0,5.0,95,0.00,,,0.00,weatherlink.com 1.10,2013-03-18 07:13:00,
2013-03-18 02:28:00,43.3,42.0,29.77,NNE,26,4.0,6.0,95,0.00,,,0.00,weatherlink.com 1.10,2013-03-18 07:28:00,
2013-03-18 02:43:00,43.3,42.0,29.77,NNE,22,3.0,7.0,95,0.00,,,0.00,weatherlink.com 1.10,2013-03-18 07:43:00,
2013-03-18 02:58:00,43.3,42.0,29.80,North,355,8.0,12.0,95,0.00,,,0.00,weatherlink.com 1.10,2013-03-18 07:58:00,
2013-03-18 03:13:00,43.0,42.0,29.80,North,355,7.0,13.0,95,0.00,,,0.00,weatherlink.com 1.10,2013-03-18 08:13:00,
2013-03-18 03:28:00,42.9,42.0,29.81,North,351,6.0,10.0,95,0.00,,,0.00,weatherlink.com 1.10,2013-03-18 08:28:00,
2013-03-18 03:43:00,42.8,41.0,29.82,North,360,8.0,9.0,94,0.00,,,0.00,weatherlink.com 1.10,2013-03-18 08:43:00,
2013-03-18 03:58:00,42.7,41.0,29.80,North,5,7.0,11.0,94,0.00,,,0.00,weatherlink.com 1.10,2013-03-18 08:58:00,
2013-03-18 04:13:00,42.6,41.0,29.82,NW,326,3.0,10.0,94,0.00,,,0.00,weatherlink.com 1.10,2013-03-18 09:13:00,
2013-03-18 04:28:00,42.5,41.0,29.82,NNW,337,4.0,11.0,93,0.00,,,0.00,weatherlink.com 1.10,2013-03-18 09:28:00,
2013-03-18 04:43:00,42.5,41.0,29.82,NNE,30,5.0,10.0,94,0.00,,,0.00,weatherlink.com 1.10,2013-03-18 09:43:00,
2013-03-18 04:58:00,42.2,40.0,29.83,North,5,2.0,7.0,93,0.00,,,0.00,weatherlink.com 1.10,2013-03-18 09:58:00,
2013-03-18 05:13:00,41.9,40.0,29.83,North,5,5.0,6.0,93,0.00,,,0.00,weatherlink.com 1.10,2013-03-18 10:13:00,
2013-03-18 05:28:00,41.6,40.0,29.82,North,355,0.0,5.0,93,0.00,,,0.00,weatherlink.com 1.10,2013-03-18 10:28:00,
2013-03-18 05:43:00,41.2,39.0,29.84,North,360,2.0,2.0,93,0.00,,,0.00,weatherlink.com 1.10,2013-03-18 10:43:00,
2013-03-18 05:58:00,40.9,39.0,29.86,NW,319,2.0,7.0,94,0.00,,,0.00,weatherlink.com 1.10,2013-03-18 10:58:00,
2013-03-18 06:13:00,41.0,39.0,29.84,NNW,328,4.0,6.0,94,0.00,,,0.00,weatherlink.com 1.10,2013-03-18 11:13:00,
2013-03-18 06:28:00,40.6,39.0,29.87,NW,326,5.0,8.0,94,0.00,,,0.00,weatherlink.com 1.10,2013-03-18 11:28:00,
2013-03-18 06:43:00,40.3,39.0,29.88,NNW,333,2.0,9.0,94,0.00,,,0.00,weatherlink.com 1.10,2013-03-18 11:43:00,
2013-03-18 06:58:00,40.3,39.0,29.89,NNW,338,0.0,5.0,94,0.00,,,0.00,weatherlink.com 1.10,2013-03-18 11:58:00,
2013-03-18 07:13:00,40.2,39.0,29.89,North,355,2.0,7.0,94,0.00,,,0.00,weatherlink.com 1.10,2013-03-18 12:13:00,
2013-03-18 07:28:00,40.1,38.0,29.90,NNW,347,10.0,10.0,93,0.00,,,0.00,weatherlink.com 1.10,2013-03-18 12:28:00,
2013-03-18 07:43:00,39.9,38.0,29.91,North,355,7.0,10.0,93,0.00,,,0.00,weatherlink.com 1.10,2013-03-18 12:43:00,
2013-03-18 07:58:00,40.0,38.0,29.93,NW,326,4.0,10.0,93,0.00,,,0.00,weatherlink.com 1.10,2013-03-18 12:58:00,
2013-03-18 08:13:00,40.1,38.0,29.94,North,11,5.0,13.0,93,0.00,,,0.00,weatherlink.com 1.10,2013-03-18 13:13:00,
2013-03-18 08:29:00,40.4,39.0,29.94,NNW,336,7.0,10.0,93,0.00,,,0.00,weatherlink.com 1.10,2013-03-18 13:29:00,
2013-03-18 08:44:00,40.6,39.0,29.95,NNW,332,6.0,12.0,92,0.00,,,0.00,weatherlink.com 1.10,2013-03-18 13:44:00,
2013-03-18 08:59:00,40.9,39.0,29.96,NNW,333,10.0,11.0,91,0.00,,,0.00,weatherlink.com 1.10,2013-03-18 13:59:00,
2013-03-18 09:14:00,41.2,39.0,29.96,NW,326,7.0,13.0,91,0.00,,,0.00,weatherlink.com 1.10,2013-03-18 14:14:00,
2013-03-18 09:29:00,42.2,39.0,29.98,North,355,14.0,15.0,89,0.00,,,0.00,weatherlink.com 1.10,2013-03-18 14:29:00,
2013-03-18 09:44:00,42.1,39.0,29.98,NNW,344,7.0,18.0,87,0.00,,,0.00,weatherlink.com 1.10,2013-03-18 14:44:00,
2013-03-18 09:59:00,41.8,39.0,29.98,NNW,337,12.0,15.0,88,0.00,,,0.00,weatherlink.com 1.10,2013-03-18 14:59:00,
2013-03-18 10:14:00,41.9,39.0,29.99,North,360,8.0,12.0,88,0.00,,,0.00,weatherlink.com 1.10,2013-03-18 15:14:00,
2013-03-18 10:29:00,42.1,39.0,30.00,North,11,3.0,15.0,87,0.00,,,0.00,weatherlink.com 1.10,2013-03-18 15:29:00,
2013-03-18 10:44:00,42.5,39.0,30.00,NNW,335,10.0,14.0,87,0.00,,,0.00,weatherlink.com 1.10,2013-03-18 15:44:00,
2013-03-18 10:59:00,42.8,39.0,30.01,NNW,343,7.0,14.0,86,0.00,,,0.00,weatherlink.com 1.10,2013-03-18 15:59:00,
2013-03-18 11:14:00,43.3,39.0,30.01,NNW,348,6.0,11.0,86,0.00,,,0.00,weatherlink.com 1.10,2013-03-18 16:14:00,
2013-03-18 11:29:00,43.3,39.0,30.02,NNE,21,8.0,13.0,85,0.00,,,0.00,weatherlink.com 1.10,2013-03-18 16:29:00,
2013-03-18 11:44:00,43.8,39.0,30.02,North,5,7.0,15.0,84,0.00,,,0.00,weatherlink.com 1.10,2013-03-18 16:44:00,
2013-03-18 11:59:00,44.2,39.0,30.04,NW,321,7.0,14.0,83,0.00,,,0.00,weatherlink.com 1.10,2013-03-18 16:59:00,
2013-03-18 12:14:00,44.8,39.0,30.03,North,355,3.0,13.0,81,0.00,,,0.00,weatherlink.com 1.10,2013-03-18 17:14:00,
2013-03-18 12:29:00,46.1,39.0,30.03,NNW,344,7.0,15.0,77,0.00,,,0.00,weatherlink.com 1.10,2013-03-18 17:29:00,
2013-03-18 12:44:00,48.1,40.0,30.02,NW,314,8.0,15.0,74,0.00,,,0.00,weatherlink.com 1.10,2013-03-18 17:44:00,
2013-03-18 12:59:00,48.7,40.0,30.02,NNW,343,9.0,15.0,72,0.00,,,0.00,weatherlink.com 1.10,2013-03-18 17:59:00,
2013-03-18 13:14:00,50.2,40.0,30.02,North,355,9.0,14.0,68,0.00,,,0.00,weatherlink.com 1.10,2013-03-18 18:14:00,
2013-03-18 13:29:00,51.4,40.0,30.01,NNW,342,10.0,11.0,65,0.00,,,0.00,weatherlink.com 1.10,2013-03-18 18:29:00,
2013-03-18 13:44:00,52.6,38.0,30.02,North,355,11.0,15.0,59,0.00,,,0.00,weatherlink.com 1.10,2013-03-18 18:44:00,
2013-03-18 13:59:00,53.8,39.0,30.01,North,350,10.0,16.0,57,0.00,,,0.00,weatherlink.com 1.10,2013-03-18 18:59:00,
2013-03-18 14:14:00,54.4,38.0,30.01,NE,44,4.0,19.0,54,0.00,,,0.00,weatherlink.com 1.10,2013-03-18 19:14:00,
2013-03-18 14:29:00,55.3,37.0,29.99,NNE,32,12.0,17.0,50,0.00,,,0.00,weatherlink.com 1.10,2013-03-18 19:29:00,
2013-03-18 14:44:00,55.9,37.0,29.99,North,360,8.0,16.0,49,0.00,,,0.00,weatherlink.com 1.10,2013-03-18 19:44:00,
2013-03-18 14:59:00,56.8,36.0,29.99,North,351,10.0,16.0,46,0.00,,,0.00,weatherlink.com 1.10,2013-03-18 19:59:00,
2013-03-18 15:15:00,56.8,35.0,29.99,North,9,10.0,17.0,44,0.00,,,0.00,weatherlink.com 1.10,2013-03-18 20:15:00,
2013-03-18 15:30:00,57.4,34.0,30.00,North,355,8.0,14.0,41,0.00,,,0.00,weatherlink.com 1.10,2013-03-18 20:30:00,
2013-03-18 15:45:00,58.4,34.0,29.99,NW,321,7.0,11.0,40,0.00,,,0.00,weatherlink.com 1.10,2013-03-18 20:45:00,
2013-03-18 16:00:00,58.3,34.0,30.00,NNE,12,8.0,11.0,40,0.00,,,0.00,weatherlink.com 1.10,2013-03-18 21:00:00,
2013-03-18 16:15:00,58.1,32.0,30.00,NNW,348,3.0,11.0,38,0.00,,,0.00,weatherlink.com 1.10,2013-03-18 21:15:00,
2013-03-18 16:30:00,59.0,30.0,30.00,NNE,32,4.0,15.0,34,0.00,,,0.00,weatherlink.com 1.10,2013-03-18 21:30:00,
2013-03-18 16:45:00,58.7,29.0,30.00,North,5,9.0,16.0,33,0.00,,,0.00,weatherlink.com 1.10,2013-03-18 21:45:00,
2013-03-18 17:00:00,59.3,30.0,30.01,North,360,9.0,15.0,33,0.00,,,0.00,weatherlink.com 1.10,2013-03-18 22:00:00,
2013-03-18 17:15:00,59.8,30.0,30.00,NE,36,7.0,13.0,32,0.00,,,0.00,weatherlink.com 1.10,2013-03-18 22:15:00,
2013-03-18 17:30:00,59.5,29.0,30.00,North,5,10.0,15.0,32,0.00,,,0.00,weatherlink.com 1.10,2013-03-18 22:30:00,
2013-03-18 17:45:00,59.6,28.0,30.00,North,5,6.0,15.0,30,0.00,,,0.00,weatherlink.com 1.10,2013-03-18 22:45:00,
2013-03-18 18:00:00,59.4,29.0,30.01,North,355,7.0,8.0,32,0.00,,,0.00,weatherlink.com 1.10,2013-03-18 23:00:00,
2013-03-18 18:15:00,59.4,28.0,30.00,North,360,5.0,14.0,30,0.00,,,0.00,weatherlink.com 1.10,2013-03-18 23:15:00,
2013-03-18 18:30:00,59.3,27.0,30.01,NNW,348,7.0,12.0,29,0.00,,,0.00,weatherlink.com 1.10,2013-03-18 23:30:00,
2013-03-18 18:45:00,58.5,29.0,30.01,North,9,3.0,11.0,32,0.00,,,0.00,weatherlink.com 1.10,2013-03-18 23:45:00,
2013-03-18 19:00:00,57.8,27.0,30.02,North,360,5.0,8.0,31,0.00,,,0.00,weatherlink.com 1.10,2013-03-19 00:00:00,
2013-03-18 19:15:00,57.6,28.0,30.02,North,355,5.0,7.0,32,0.00,,,0.00,weatherlink.com 1.10,2013-03-19 00:15:00,
2013-03-18 19:30:00,57.1,28.0,30.02,NE,52,2.0,7.0,33,0.00,,,0.00,weatherlink.com 1.10,2013-03-19 00:30:00,
2013-03-18 19:45:00,56.2,28.0,30.03,NE,52,1.0,1.0,34,0.00,,,0.00,weatherlink.com 1.10,2013-03-19 00:45:00,
2013-03-18 20:00:00,54.5,28.0,30.03,NE,52,0.0,1.0,37,0.00,,,0.00,weatherlink.com 1.10,2013-03-19 01:00:00,
2013-03-18 20:15:00,52.2,31.0,30.04,NE,52,0.0,1.0,44,0.00,,,0.00,weatherlink.com 1.10,2013-03-19 01:15:00,
2013-03-18 20:30:00,50.3,31.0,30.04,NE,52,0.0,0.0,48,0.00,,,0.00,weatherlink.com 1.10,2013-03-19 01:30:00,
2013-03-18 20:45:00,48.7,30.0,30.04,NE,52,0.0,0.0,48,0.00,,,0.00,weatherlink.com 1.10,2013-03-19 01:45:00,
2013-03-18 21:00:00,46.9,30.0,30.05,NE,52,0.0,1.0,53,0.00,,,0.00,weatherlink.com 1.10,2013-03-19 02:00:00,
2013-03-18 21:15:00,45.4,31.0,30.06,NE,52,0.0,0.0,57,0.00,,,0.00,weatherlink.com 1.10,2013-03-19 02:15:00,
2013-03-18 21:31:00,44.6,30.0,30.07,NE,52,0.0,0.0,58,0.00,,,0.00,weatherlink.com 1.10,2013-03-19 02:31:00,
2013-03-18 21:46:00,43.6,32.0,30.07,NE,52,0.0,0.0,64,0.00,,,0.00,weatherlink.com 1.10,2013-03-19 02:46:00,
2013-03-18 22:01:00,42.3,32.0,30.08,NE,52,0.0,0.0,66,0.00,,,0.00,weatherlink.com 1.10,2013-03-19 03:01:00,
2013-03-18 22:16:00,41.3,31.0,30.08,NE,52,0.0,0.0,68,0.00,,,0.00,weatherlink.com 1.10,2013-03-19 03:16:00,
2013-03-18 23:01:00,39.3,29.0,30.10,NE,52,0.0,0.0,67,0.00,,,0.00,weatherlink.com 1.10,2013-03-19 04:01:00,
2013-03-18 23:16:00,39.3,30.0,30.10,NE,52,0.0,1.0,69,0.00,,,0.00,weatherlink.com 1.10,2013-03-19 04:16:00,
2013-03-18 23:31:00,38.6,30.0,30.10,NE,52,0.0,0.0,71,0.00,,,0.00,weatherlink.com 1.10,2013-03-19 04:31:00,
2013-03-18 23:46:00,38.3,30.0,30.10,NE,52,0.0,0.0,72,0.00,,,0.00,weatherlink.com 1.10,2013-03-19 04:46:00,